Location: Archemont
(49.1579°N, 1.7598°E)
Time: 11:25:16
(UTC+00:00)

Cosmos 1869 - Pass Details

Date: 03 February 2023
Orbit: 510 x 550 km, 82.5° (Epoch: 26 March)

Event Time Altitude Azimuth Distance (km) Brightness Sun altitude
Rises 18:59:02 0° 346° (NNW) 2,662 7.0 -20.8°
Reaches altitude 10° 19:01:12 10° 341° (NNW) 1,775 6.1 -21.2°
Maximum altitude 19:05:00 53° 265° (W) 656 4.0 -21.8°
Drops below altitude 10° 19:08:50 10° 188° (S) 1,786 6.0 -22.4°
Sets 19:11:00 0° 184° (S) 2,680 6.9 -22.8°
